This demonstration page uses our WeatherBlox Daily Observations layout. Learn more.

Left ArrowRight Arrow

Hourly Observations for March 14, 2019

Temp ( °F °C ) Dew Point ( °F °C ) Humidity (%) Winds ( mph kmh ) Pressure ( in mb ) Visibility ( mi km ) Precip ( " mm )
12:51 am 00:51 Clear 39 3.9 26 -3.3 60 60 NW 12 19 29.99 1016 10 16 N/A
1:51 am 01:51 Clear 40 4.4 24 -4.4 53 53 NNW 9 15 30.00 1016 10 16 N/A
2:51 am 02:51 Clear 39 3.9 25 -3.9 57 57 NNW 10 17 29.98 1015 10 16 N/A
3:51 am 03:51 Clear 37 2.8 25 -3.9 62 62 NNW 8 13 29.99 1016 10 16 N/A
4:51 am 04:51 Clear 32 undefined 26 -3.3 79 79 N 5 7 30.02 1017 10 16 N/A
5:51 am 05:51 Clear 33 0.6 26 -3.3 75 75 N N/A 30.04 1017 10 16 N/A
6:51 am 06:51 Sunny 31 -0.6 26 -3.3 82 82 SSE 5 7 30.07 1018 10 16 N/A
7:51 am 07:51 Sunny 39 3.9 27 -2.8 62 62 ESE 3 6 30.09 1019 10 16 N/A
8:51 am 08:51 Sunny 42 5.6 25 -3.9 51 51 N N/A 30.11 1020 10 16 N/A
9:51 am 09:51 Sunny 47 8.3 23 -5 39 39 ESE 3 6 30.11 1020 10 16 N/A
10:51 am 10:51 Sunny 50 10 18 -7.8 28 28 VRB 5 7 30.11 1020 10 16 N/A
11:51 am 11:51 Sunny 50 10 13 -10.6 22 22 WSW 7 11 30.10 1019 10 16 N/A
12:51 pm 12:51 Sunny 53 11.7 16 -8.9 23 23 VRB 6 9 30.08 1019 10 16 N/A
1:51 pm 13:51 Sunny 56 13.3 18 -7.8 22 22 NNW 10 17 30.06 1018 10 16 N/A
2:51 pm 14:51 Sunny 57 13.9 18 -7.8 22 22 VRB 7 11 30.05 1018 10 16 N/A
3:51 pm 15:51 Sunny 57 13.9 16 -8.9 20 20 W 14 22 30.05 1018 10 16 N/A
4:51 pm 16:51 Sunny 57 13.9 15 -9.4 19 19 W 8 13 30.06 1018 10 16 N/A
5:51 pm 17:51 Sunny 54 12.2 20 -6.7 26 26 W 12 19 30.06 1018 10 16 N/A
6:51 pm 18:51 Clear 50 10 24 -4.4 36 36 WNW 7 11 30.10 1019 10 16 N/A
7:51 pm 19:51 Clear 45 7.2 29 -1.7 54 54 NNW 5 7 30.11 1020 10 16 N/A
8:51 pm 20:51 Clear 45 7.2 30 -1.1 56 56 WNW 8 13 30.10 1019 10 16 N/A
9:51 pm 21:51 Clear 45 7.2 28 -2.2 52 52 NNE 6 9 30.12 1020 10 16 N/A
10:51 pm 22:51 Clear 41 5 31 -0.6 67 67 N N/A 30.11 1020 10 16 N/A
11:51 pm 23:51 Clear 42 5.6 29 -1.7 60 60 SE 5 7 30.12 1020 10 16 N/A

Powered by AerisWeather